Year,Month,Day,Hour,Minute,Value (Times are PST for temperature in C)
2008,05,19,00,00,15.90
2008,05,19,00,01,15.80
2008,05,19,00,02,15.80
2008,05,19,00,03,15.80
2008,05,19,00,04,15.80
2008,05,19,00,05,15.70
2008,05,19,00,06,15.70
2008,05,19,00,07,15.70
2008,05,19,00,08,15.70
2008,05,19,00,09,15.70
2008,05,19,00,10,15.70
2008,05,19,00,11,15.80
2008,05,19,00,12,15.80
2008,05,19,00,13,15.80
2008,05,19,00,14,15.90
2008,05,19,00,15,16.00
2008,05,19,00,16,16.10
2008,05,19,00,17,16.10
2008,05,19,00,18,16.10
2008,05,19,00,19,16.10
2008,05,19,00,20,16.20
2008,05,19,00,21,16.20
2008,05,19,00,22,16.20
2008,05,19,00,23,16.30
2008,05,19,00,24,16.30
2008,05,19,00,25,16.30
2008,05,19,00,26,16.30
2008,05,19,00,27,16.40
2008,05,19,00,28,16.40
2008,05,19,00,29,16.40
2008,05,19,00,30,16.40
2008,05,19,00,31,16.50
2008,05,19,00,32,16.60
2008,05,19,00,33,16.70
2008,05,19,00,34,16.70
2008,05,19,00,35,16.70
2008,05,19,00,36,16.70
2008,05,19,00,37,16.70
2008,05,19,00,38,16.70
2008,05,19,00,39,16.70
2008,05,19,00,40,16.70
2008,05,19,00,41,16.70
2008,05,19,00,42,16.70
2008,05,19,00,43,16.80
2008,05,19,00,44,16.80
2008,05,19,00,45,16.90
2008,05,19,00,46,16.90
2008,05,19,00,47,17.00
2008,05,19,00,48,17.00
2008,05,19,00,49,17.10
2008,05,19,00,50,17.10
2008,05,19,00,51,17.10
2008,05,19,00,52,17.10
2008,05,19,00,53,17.20
2008,05,19,00,54,17.20
2008,05,19,00,55,17.30
2008,05,19,00,56,17.30
2008,05,19,00,57,17.30
2008,05,19,00,58,17.30
2008,05,19,00,59,17.40
2008,05,19,01,00,17.40
2008,05,19,01,01,17.40
2008,05,19,01,02,17.50
2008,05,19,01,03,17.50
2008,05,19,01,04,17.50
2008,05,19,01,05,17.40
2008,05,19,01,06,17.40
2008,05,19,01,07,17.30
2008,05,19,01,08,17.20
2008,05,19,01,09,17.00
2008,05,19,01,10,16.90
2008,05,19,01,11,16.90
2008,05,19,01,12,16.60
2008,05,19,01,13,16.40
2008,05,19,01,14,16.40
2008,05,19,01,15,16.40
2008,05,19,01,16,16.40
2008,05,19,01,17,16.40
2008,05,19,01,18,16.40
2008,05,19,01,19,16.30
2008,05,19,01,20,16.30
2008,05,19,01,21,16.20
2008,05,19,01,22,16.10
2008,05,19,01,23,16.10
2008,05,19,01,24,16.10
2008,05,19,01,25,16.10
2008,05,19,01,26,16.10
2008,05,19,01,27,15.90
2008,05,19,01,28,15.90
2008,05,19,01,29,15.70
2008,05,19,01,30,15.70
2008,05,19,01,31,15.60
2008,05,19,01,32,15.60
2008,05,19,01,33,15.60
2008,05,19,01,34,15.50
2008,05,19,01,35,15.50
2008,05,19,01,36,15.50
2008,05,19,01,37,15.40
2008,05,19,01,38,15.40
2008,05,19,01,39,15.40
2008,05,19,01,40,15.30
2008,05,19,01,41,15.30
2008,05,19,01,42,15.30
2008,05,19,01,43,15.30
2008,05,19,01,44,15.20
2008,05,19,01,45,15.20
2008,05,19,01,46,15.10
2008,05,19,01,47,15.10
2008,05,19,01,48,15.10
2008,05,19,01,49,15.10
2008,05,19,01,50,15.00
2008,05,19,01,51,14.90
2008,05,19,01,52,14.90
2008,05,19,01,53,14.90
2008,05,19,01,54,14.90
2008,05,19,01,55,14.90
2008,05,19,01,56,14.80
2008,05,19,01,57,14.80
2008,05,19,01,58,14.80
2008,05,19,01,59,14.80
2008,05,19,02,00,14.80
2008,05,19,02,01,14.80
2008,05,19,02,02,14.80
2008,05,19,02,03,14.80
2008,05,19,02,04,14.80
2008,05,19,02,05,14.80
2008,05,19,02,06,14.80
2008,05,19,02,07,14.80
2008,05,19,02,08,14.80
2008,05,19,02,09,14.80
2008,05,19,02,10,14.80
2008,05,19,02,11,14.80
2008,05,19,02,12,14.80
2008,05,19,02,13,14.80
2008,05,19,02,14,14.90
2008,05,19,02,15,14.90
2008,05,19,02,16,14.90
2008,05,19,02,17,14.90
2008,05,19,02,18,15.00
2008,05,19,02,19,15.00
2008,05,19,02,20,15.00
2008,05,19,02,21,15.00
2008,05,19,02,22,15.00
2008,05,19,02,23,15.00
2008,05,19,02,24,15.00
2008,05,19,02,25,15.10
2008,05,19,02,26,15.10
2008,05,19,02,27,15.10
2008,05,19,02,28,15.10
2008,05,19,02,29,15.20
2008,05,19,02,30,15.20
2008,05,19,02,31,15.20
2008,05,19,02,32,15.20
2008,05,19,02,33,15.20
2008,05,19,02,34,15.20
2008,05,19,02,35,15.30
2008,05,19,02,36,15.30
2008,05,19,02,37,15.30
2008,05,19,02,38,15.30
2008,05,19,02,39,15.30
2008,05,19,02,40,15.40
2008,05,19,02,41,15.40
2008,05,19,02,42,15.40
2008,05,19,02,43,15.40
2008,05,19,02,44,15.30
2008,05,19,02,45,15.30
2008,05,19,02,46,15.30
2008,05,19,02,47,15.30
2008,05,19,02,48,15.30
2008,05,19,02,49,15.30
2008,05,19,02,50,15.40
2008,05,19,02,51,15.40
2008,05,19,02,52,15.40
2008,05,19,02,53,15.40
2008,05,19,02,54,15.40
2008,05,19,02,55,15.30
2008,05,19,02,56,15.30
2008,05,19,02,57,15.30
2008,05,19,02,58,15.30
2008,05,19,02,59,15.40
2008,05,19,03,00,15.40
2008,05,19,03,01,15.50
2008,05,19,03,02,15.50
2008,05,19,03,03,15.50
2008,05,19,03,04,15.50
2008,05,19,03,05,15.50
2008,05,19,03,06,15.50
2008,05,19,03,07,15.50
2008,05,19,03,08,15.50
2008,05,19,03,09,15.50
2008,05,19,03,10,15.50
2008,05,19,03,11,15.40
2008,05,19,03,12,15.40
2008,05,19,03,13,15.40
2008,05,19,03,14,15.40
2008,05,19,03,15,15.50
2008,05,19,03,16,15.40
2008,05,19,03,17,15.40
2008,05,19,03,18,15.50
2008,05,19,03,19,15.50
2008,05,19,03,20,15.50
2008,05,19,03,21,15.60
2008,05,19,03,22,15.60
2008,05,19,03,23,15.60
2008,05,19,03,24,15.70
2008,05,19,03,25,15.70
2008,05,19,03,26,15.70
2008,05,19,03,27,15.80
2008,05,19,03,28,15.80
2008,05,19,03,29,15.80
2008,05,19,03,30,15.80
2008,05,19,03,31,15.80
2008,05,19,03,32,15.80
2008,05,19,03,33,15.80
2008,05,19,03,34,15.80
2008,05,19,03,35,15.80
2008,05,19,03,36,15.80
2008,05,19,03,37,15.80
2008,05,19,03,38,15.80
2008,05,19,03,39,15.80
2008,05,19,03,40,15.80
2008,05,19,03,41,15.80
2008,05,19,03,42,15.70
2008,05,19,03,43,15.70
2008,05,19,03,44,15.70
2008,05,19,03,45,15.70
2008,05,19,03,46,15.70
2008,05,19,03,47,15.70
2008,05,19,03,48,15.80
2008,05,19,03,49,15.80
2008,05,19,03,50,15.70
2008,05,19,03,51,15.70
2008,05,19,03,52,15.70
2008,05,19,03,53,15.80
2008,05,19,03,54,15.70
2008,05,19,03,55,15.70
2008,05,19,03,56,15.70
2008,05,19,03,57,15.70
2008,05,19,03,58,15.60
2008,05,19,03,59,15.60
2008,05,19,04,00,15.60
2008,05,19,04,01,15.60
2008,05,19,04,02,15.50
2008,05,19,04,03,15.50
2008,05,19,04,04,15.40
2008,05,19,04,05,15.40
2008,05,19,04,06,15.30
2008,05,19,04,07,15.30
2008,05,19,04,08,15.30
2008,05,19,04,09,15.20
2008,05,19,04,10,15.20
2008,05,19,04,11,15.20
2008,05,19,04,12,15.20
2008,05,19,04,13,15.20
2008,05,19,04,14,15.20
2008,05,19,04,15,15.10
2008,05,19,04,16,15.10
2008,05,19,04,17,15.10
2008,05,19,04,18,15.20
2008,05,19,04,19,15.10
2008,05,19,04,20,15.10
2008,05,19,04,21,15.10
2008,05,19,04,22,15.10
2008,05,19,04,23,15.00
2008,05,19,04,24,14.90
2008,05,19,04,25,14.90
2008,05,19,04,26,14.70
2008,05,19,04,27,14.60
2008,05,19,04,28,14.40
2008,05,19,04,29,14.10
2008,05,19,04,30,14.00
2008,05,19,04,31,13.90
2008,05,19,04,32,13.90
2008,05,19,04,33,13.80
2008,05,19,04,34,13.80
2008,05,19,04,35,13.70
2008,05,19,04,36,13.60
2008,05,19,04,37,13.50
2008,05,19,04,38,13.50
2008,05,19,04,39,13.40
2008,05,19,04,40,13.30
2008,05,19,04,41,13.10
2008,05,19,04,42,13.00
2008,05,19,04,43,13.00
2008,05,19,04,44,12.90
2008,05,19,04,45,12.80
2008,05,19,04,46,12.80
2008,05,19,04,47,12.80
2008,05,19,04,48,12.90
2008,05,19,04,49,13.00
2008,05,19,04,50,13.10
2008,05,19,04,51,13.20
2008,05,19,04,52,13.20
2008,05,19,04,53,13.30
2008,05,19,04,54,13.30
2008,05,19,04,55,13.30
2008,05,19,04,56,13.30
2008,05,19,04,57,13.30
2008,05,19,04,58,13.30
2008,05,19,04,59,13.30
2008,05,19,05,00,13.30
2008,05,19,05,01,13.30
2008,05,19,05,02,13.30
2008,05,19,05,03,13.20
2008,05,19,05,04,13.10
2008,05,19,05,05,13.00
2008,05,19,05,06,13.00
2008,05,19,05,07,13.00
2008,05,19,05,08,12.90
2008,05,19,05,09,12.90
2008,05,19,05,10,12.90
2008,05,19,05,11,12.90
2008,05,19,05,12,12.90
2008,05,19,05,13,12.90
2008,05,19,05,14,12.90
2008,05,19,05,15,12.90
2008,05,19,05,16,13.00
2008,05,19,05,17,13.00
2008,05,19,05,18,13.00
2008,05,19,05,19,13.10
2008,05,19,05,20,13.10
2008,05,19,05,21,13.00
2008,05,19,05,22,13.00
2008,05,19,05,23,13.00
2008,05,19,05,24,13.00
2008,05,19,05,25,12.90
2008,05,19,05,26,12.90
2008,05,19,05,27,12.80
2008,05,19,05,28,12.80
2008,05,19,05,29,12.80
2008,05,19,05,30,12.80
2008,05,19,05,31,12.80
2008,05,19,05,32,12.80
2008,05,19,05,33,12.80
2008,05,19,05,34,12.80
2008,05,19,05,35,12.80
2008,05,19,05,36,12.90
2008,05,19,05,37,12.90
2008,05,19,05,38,12.90
2008,05,19,05,39,12.80
2008,05,19,05,40,12.70
2008,05,19,05,41,12.70
2008,05,19,05,42,12.70
2008,05,19,05,43,12.70
2008,05,19,05,44,12.70
2008,05,19,05,45,12.70
2008,05,19,05,46,12.70
2008,05,19,05,47,12.70
2008,05,19,05,48,12.70
2008,05,19,05,49,12.80
2008,05,19,05,50,12.80
2008,05,19,05,51,12.90
2008,05,19,05,52,13.00
2008,05,19,05,53,13.00
2008,05,19,05,54,13.00
2008,05,19,05,55,13.00
2008,05,19,05,56,13.00
2008,05,19,05,57,12.90
2008,05,19,05,58,13.00
2008,05,19,05,59,13.00
2008,05,19,06,00,13.10
2008,05,19,06,01,13.20
2008,05,19,06,02,13.20
2008,05,19,06,03,13.10
2008,05,19,06,04,13.00
2008,05,19,06,05,13.00
2008,05,19,06,06,12.90
2008,05,19,06,07,12.90
2008,05,19,06,08,12.80
2008,05,19,06,09,12.70
2008,05,19,06,10,12.30
2008,05,19,06,11,12.00
2008,05,19,06,12,11.80
2008,05,19,06,13,11.60
2008,05,19,06,14,11.40
2008,05,19,06,15,11.30
2008,05,19,06,16,11.20
2008,05,19,06,17,11.20
2008,05,19,06,18,11.10
2008,05,19,06,19,11.10
2008,05,19,06,20,11.10
2008,05,19,06,21,11.10
2008,05,19,06,22,11.10
2008,05,19,06,23,11.10
2008,05,19,06,24,11.10
2008,05,19,06,25,11.10
2008,05,19,06,26,11.10
2008,05,19,06,27,11.10
2008,05,19,06,28,11.10
2008,05,19,06,29,11.20
2008,05,19,06,30,11.30
2008,05,19,06,31,11.40
2008,05,19,06,32,11.40
2008,05,19,06,33,11.50
2008,05,19,06,34,11.60
2008,05,19,06,35,11.70
2008,05,19,06,36,11.80
2008,05,19,06,37,11.80
2008,05,19,06,38,11.90
2008,05,19,06,39,11.90
2008,05,19,06,40,12.00
2008,05,19,06,41,12.10
2008,05,19,06,42,12.20
2008,05,19,06,43,12.20
2008,05,19,06,44,12.30
2008,05,19,06,45,12.30
2008,05,19,06,46,12.40
2008,05,19,06,47,12.50
2008,05,19,06,48,12.50
2008,05,19,06,49,12.60
2008,05,19,06,50,12.70
2008,05,19,06,51,12.70
2008,05,19,06,52,12.80
2008,05,19,06,53,12.90
2008,05,19,06,54,13.00
2008,05,19,06,55,13.00
2008,05,19,06,56,13.20
2008,05,19,06,57,13.20
2008,05,19,06,58,13.30
2008,05,19,06,59,13.30
2008,05,19,07,00,13.40
2008,05,19,07,01,13.40
2008,05,19,07,02,13.50
2008,05,19,07,03,13.50
2008,05,19,07,04,13.50
2008,05,19,07,05,13.60
2008,05,19,07,06,13.60
2008,05,19,07,07,13.60
2008,05,19,07,08,13.60
2008,05,19,07,09,13.60
2008,05,19,07,10,13.60
2008,05,19,07,11,13.60
2008,05,19,07,12,13.70
2008,05,19,07,13,13.70
2008,05,19,07,14,13.70
2008,05,19,07,15,13.70
2008,05,19,07,16,13.70
2008,05,19,07,17,13.70
2008,05,19,07,18,13.70
2008,05,19,07,19,13.70
2008,05,19,07,20,13.70
2008,05,19,07,21,13.70
2008,05,19,07,22,13.70
2008,05,19,07,23,13.70
2008,05,19,07,24,13.70
2008,05,19,07,25,13.70
2008,05,19,07,26,13.80
2008,05,19,07,27,13.70
2008,05,19,07,28,13.70
2008,05,19,07,29,13.70
2008,05,19,07,30,13.70
2008,05,19,07,31,13.70
2008,05,19,07,32,13.60
2008,05,19,07,33,13.60
2008,05,19,07,34,13.50
2008,05,19,07,35,13.50
2008,05,19,07,36,13.40
2008,05,19,07,37,13.40
2008,05,19,07,38,13.40
2008,05,19,07,39,13.40
2008,05,19,07,40,13.50
2008,05,19,07,41,13.60
2008,05,19,07,42,13.60
2008,05,19,07,43,13.70
2008,05,19,07,44,13.70
2008,05,19,07,45,13.80
2008,05,19,07,46,13.90
2008,05,19,07,47,13.90
2008,05,19,07,48,14.00
2008,05,19,07,49,14.10
2008,05,19,07,50,14.20
2008,05,19,07,51,14.20
2008,05,19,07,52,14.20
2008,05,19,07,53,14.30
2008,05,19,07,54,14.50
2008,05,19,07,55,14.50
2008,05,19,07,56,14.60
2008,05,19,07,57,14.70
2008,05,19,07,58,14.80
2008,05,19,07,59,14.90
2008,05,19,08,00,15.00
2008,05,19,08,01,15.00
2008,05,19,08,02,15.10
2008,05,19,08,03,15.20
2008,05,19,08,04,15.10
2008,05,19,08,05,15.10
2008,05,19,08,06,15.10
2008,05,19,08,07,15.10
2008,05,19,08,08,15.10
2008,05,19,08,09,15.20
2008,05,19,08,10,15.20
2008,05,19,08,11,15.20
2008,05,19,08,12,15.30
2008,05,19,08,13,15.30
2008,05,19,08,14,15.40
2008,05,19,08,15,15.50
2008,05,19,08,16,15.60
2008,05,19,08,17,15.60
2008,05,19,08,18,15.70
2008,05,19,08,19,15.80
2008,05,19,08,20,15.80
2008,05,19,08,21,15.90
2008,05,19,08,22,15.90
2008,05,19,08,23,15.80
2008,05,19,08,24,15.80
2008,05,19,08,25,15.70
2008,05,19,08,26,15.80
2008,05,19,08,27,15.80
2008,05,19,08,28,15.90
2008,05,19,08,29,16.00
2008,05,19,08,30,16.10
2008,05,19,08,31,16.10
2008,05,19,08,32,16.00
2008,05,19,08,33,15.90
2008,05,19,08,34,15.80
2008,05,19,08,35,15.80
2008,05,19,08,36,15.80
2008,05,19,08,37,15.80
2008,05,19,08,38,15.80
2008,05,19,08,39,15.80
2008,05,19,08,40,15.80
2008,05,19,08,41,15.70
2008,05,19,08,42,15.60
2008,05,19,08,43,15.50
2008,05,19,08,44,15.50
2008,05,19,08,45,15.50
2008,05,19,08,46,15.40
2008,05,19,08,47,15.40
2008,05,19,08,48,15.40
2008,05,19,08,49,15.50
2008,05,19,08,50,15.50
2008,05,19,08,51,15.60
2008,05,19,08,52,15.60
2008,05,19,08,53,15.60
2008,05,19,08,54,15.60
2008,05,19,08,55,15.50
2008,05,19,08,56,15.50
2008,05,19,08,57,15.50
2008,05,19,08,58,15.40
2008,05,19,08,59,15.30
2008,05,19,09,00,15.20
2008,05,19,09,01,15.10
2008,05,19,09,02,15.00
2008,05,19,09,03,14.90
2008,05,19,09,04,14.80
2008,05,19,09,05,14.80
2008,05,19,09,06,14.70
2008,05,19,09,07,14.60
2008,05,19,09,08,14.60
2008,05,19,09,09,14.50
2008,05,19,09,10,14.50
2008,05,19,09,11,14.40
2008,05,19,09,12,14.30
2008,05,19,09,13,14.30
2008,05,19,09,14,14.20
2008,05,19,09,15,14.20
2008,05,19,09,16,14.20
2008,05,19,09,17,14.20
2008,05,19,09,18,14.20
2008,05,19,09,19,14.10
2008,05,19,09,20,14.10
2008,05,19,09,21,14.10
2008,05,19,09,22,14.10
2008,05,19,09,23,14.10
2008,05,19,09,24,14.10
2008,05,19,09,25,14.10
2008,05,19,09,26,14.20
2008,05,19,09,27,14.20
2008,05,19,09,28,14.20
2008,05,19,09,29,14.20
2008,05,19,09,30,14.10
2008,05,19,09,31,14.00
2008,05,19,09,32,13.90
2008,05,19,09,33,13.80
2008,05,19,09,34,13.70
2008,05,19,09,35,13.70
2008,05,19,09,36,13.70
2008,05,19,09,37,13.70
2008,05,19,09,38,13.70
2008,05,19,09,39,13.70
2008,05,19,09,40,13.70
2008,05,19,09,41,13.60
2008,05,19,09,42,13.60
2008,05,19,09,43,13.50
2008,05,19,09,44,13.40
2008,05,19,09,45,13.40
2008,05,19,09,46,13.40
2008,05,19,09,47,13.50
2008,05,19,09,48,13.50
2008,05,19,09,49,13.60
2008,05,19,09,50,13.70
2008,05,19,09,51,13.70
2008,05,19,09,52,13.70
2008,05,19,09,53,13.70
2008,05,19,09,54,13.70
2008,05,19,09,55,13.70
2008,05,19,09,56,13.70
2008,05,19,09,57,13.70
2008,05,19,09,58,13.70
2008,05,19,09,59,13.70
2008,05,19,10,00,13.60
2008,05,19,10,01,13.60
2008,05,19,10,02,13.60
2008,05,19,10,03,13.60
2008,05,19,10,04,13.60
2008,05,19,10,05,13.60
2008,05,19,10,06,13.60
2008,05,19,10,07,13.60
2008,05,19,10,08,13.70
2008,05,19,10,09,13.70
2008,05,19,10,10,13.70
2008,05,19,10,11,13.70
2008,05,19,10,12,13.70
2008,05,19,10,13,13.80
2008,05,19,10,14,13.80
2008,05,19,10,15,13.80
2008,05,19,10,16,13.80
2008,05,19,10,17,13.80
2008,05,19,10,18,13.80
2008,05,19,10,19,13.90
2008,05,19,10,20,13.90
2008,05,19,10,21,13.90
2008,05,19,10,22,13.90
2008,05,19,10,23,13.90
2008,05,19,10,24,13.90
2008,05,19,10,25,13.90
2008,05,19,10,26,14.00
2008,05,19,10,27,14.00
2008,05,19,10,28,14.10
2008,05,19,10,29,14.10
2008,05,19,10,30,14.20
2008,05,19,10,31,14.20
2008,05,19,10,32,14.20
2008,05,19,10,33,14.10
2008,05,19,10,34,14.00
2008,05,19,10,35,14.00
2008,05,19,10,36,14.00
2008,05,19,10,37,14.00
2008,05,19,10,38,14.00
2008,05,19,10,39,14.00
2008,05,19,10,40,14.10
2008,05,19,10,41,14.20
2008,05,19,10,42,14.20
2008,05,19,10,43,14.30
2008,05,19,10,44,14.40
2008,05,19,10,45,14.50
2008,05,19,10,46,14.60
2008,05,19,10,47,14.70
2008,05,19,10,48,14.70
2008,05,19,10,49,14.80
2008,05,19,10,50,14.80
2008,05,19,10,51,14.80
2008,05,19,10,52,14.90
2008,05,19,10,53,14.90
2008,05,19,10,54,14.90
2008,05,19,10,55,14.90
2008,05,19,10,56,14.90
2008,05,19,10,57,14.90
2008,05,19,10,58,14.80
2008,05,19,10,59,14.80
2008,05,19,11,00,14.90
2008,05,19,11,01,15.00
2008,05,19,11,02,15.00
2008,05,19,11,03,15.10
2008,05,19,11,04,15.10
2008,05,19,11,05,15.10
2008,05,19,11,06,15.10
2008,05,19,11,07,15.20
2008,05,19,11,08,15.30
2008,05,19,11,09,15.30
2008,05,19,11,10,15.40
2008,05,19,11,11,15.40
2008,05,19,11,12,15.50
2008,05,19,11,13,15.50
2008,05,19,11,14,15.30
2008,05,19,11,15,15.40
2008,05,19,11,16,15.40
2008,05,19,11,17,15.50
2008,05,19,11,18,15.50
2008,05,19,11,19,15.60
2008,05,19,11,20,15.70
2008,05,19,11,21,15.80
2008,05,19,11,22,15.80
2008,05,19,11,23,15.80
2008,05,19,11,24,15.80
2008,05,19,11,25,15.80
2008,05,19,11,26,15.80
2008,05,19,11,27,15.70
2008,05,19,11,28,15.60
2008,05,19,11,29,15.60
2008,05,19,11,30,15.60
2008,05,19,11,31,15.60
2008,05,19,11,32,15.60
2008,05,19,11,33,15.50
2008,05,19,11,34,15.50
2008,05,19,11,35,15.30
2008,05,19,11,36,15.30
2008,05,19,11,37,15.30
2008,05,19,11,38,15.30
2008,05,19,11,39,15.30
2008,05,19,11,40,15.30
2008,05,19,11,41,15.20
2008,05,19,11,42,15.20
2008,05,19,11,43,15.20
2008,05,19,11,44,15.20
2008,05,19,11,45,15.20
2008,05,19,11,46,15.20
2008,05,19,11,47,15.20
2008,05,19,11,48,15.30
2008,05,19,11,49,15.30
2008,05,19,11,50,15.30
2008,05,19,11,51,15.30
2008,05,19,11,52,15.30
2008,05,19,11,53,15.20
2008,05,19,11,54,15.20
2008,05,19,11,55,15.10
2008,05,19,11,56,15.10
2008,05,19,11,57,15.10
2008,05,19,11,58,15.10
2008,05,19,11,59,15.10
2008,05,19,12,00,15.10
2008,05,19,12,01,15.10
2008,05,19,12,02,15.30
2008,05,19,12,03,15.30
2008,05,19,12,04,15.20
2008,05,19,12,05,15.20
2008,05,19,12,06,15.10
2008,05,19,12,07,15.10
2008,05,19,12,08,15.20
2008,05,19,12,09,15.20
2008,05,19,12,10,15.40
2008,05,19,12,11,15.50
2008,05,19,12,12,15.60
2008,05,19,12,13,15.80
2008,05,19,12,14,15.80
2008,05,19,12,15,15.80
2008,05,19,12,16,15.80
2008,05,19,12,17,15.90
2008,05,19,12,18,15.90
2008,05,19,12,19,16.00
2008,05,19,12,20,16.10
2008,05,19,12,21,16.20
2008,05,19,12,22,16.10
2008,05,19,12,23,16.10
2008,05,19,12,24,16.20
2008,05,19,12,25,16.10
2008,05,19,12,26,16.00
2008,05,19,12,27,15.80
2008,05,19,12,28,15.60
2008,05,19,12,29,15.50
2008,05,19,12,30,15.40
2008,05,19,12,31,15.40
2008,05,19,12,32,15.40
2008,05,19,12,33,15.40
2008,05,19,12,34,15.40
2008,05,19,12,35,15.40
2008,05,19,12,36,15.50
2008,05,19,12,37,15.60
2008,05,19,12,38,15.60
2008,05,19,12,39,15.60
2008,05,19,12,40,15.60
2008,05,19,12,41,15.50
2008,05,19,12,42,15.50
2008,05,19,12,43,15.40
2008,05,19,12,44,15.40
2008,05,19,12,45,15.30
2008,05,19,12,46,15.30
2008,05,19,12,47,15.30
2008,05,19,12,48,15.30
2008,05,19,12,49,15.40
2008,05,19,12,50,15.40
2008,05,19,12,51,15.40
2008,05,19,12,52,15.50
2008,05,19,12,53,15.50
2008,05,19,12,54,15.40
2008,05,19,12,55,15.40
2008,05,19,12,56,15.40
2008,05,19,12,57,15.40
2008,05,19,12,58,15.40
2008,05,19,12,59,15.40
2008,05,19,13,00,15.40
2008,05,19,13,01,15.30
2008,05,19,13,02,15.30
2008,05,19,13,03,15.30
2008,05,19,13,04,15.30
2008,05,19,13,05,15.30
2008,05,19,13,06,15.30
2008,05,19,13,07,15.40
2008,05,19,13,08,15.50
2008,05,19,13,09,15.70
2008,05,19,13,10,15.80
2008,05,19,13,11,16.00
2008,05,19,13,12,16.20
2008,05,19,13,13,16.30
2008,05,19,13,14,16.40
2008,05,19,13,15,16.60
2008,05,19,13,16,16.60
2008,05,19,13,17,16.60
2008,05,19,13,18,16.70
2008,05,19,13,19,16.70
2008,05,19,13,20,16.70
2008,05,19,13,21,16.70
2008,05,19,13,22,16.70
2008,05,19,13,23,16.70
2008,05,19,13,24,16.80
2008,05,19,13,25,16.90
2008,05,19,13,26,17.00
2008,05,19,13,27,17.00
2008,05,19,13,28,17.10
2008,05,19,13,29,17.10
2008,05,19,13,30,17.10
2008,05,19,13,31,17.20
2008,05,19,13,32,17.30
2008,05,19,13,33,17.30
2008,05,19,13,34,17.30
2008,05,19,13,35,17.30
2008,05,19,13,36,17.20
2008,05,19,13,37,17.10
2008,05,19,13,38,17.00
2008,05,19,13,39,17.00
2008,05,19,13,40,16.90
2008,05,19,13,41,16.90
2008,05,19,13,42,16.90
2008,05,19,13,43,17.00
2008,05,19,13,44,17.10
2008,05,19,13,45,17.20
2008,05,19,13,46,17.10
2008,05,19,13,47,16.90
2008,05,19,13,48,16.90
2008,05,19,13,49,16.40
2008,05,19,13,50,16.20
2008,05,19,13,51,16.20
2008,05,19,13,52,16.00
2008,05,19,13,53,15.80
2008,05,19,13,54,15.60
2008,05,19,13,55,15.50
2008,05,19,13,56,15.30
2008,05,19,13,57,15.10
2008,05,19,13,58,14.90
2008,05,19,13,59,14.80
2008,05,19,14,00,14.80
2008,05,19,14,01,14.80
2008,05,19,14,02,14.70
2008,05,19,14,03,14.60
2008,05,19,14,04,14.50
2008,05,19,14,05,14.50
2008,05,19,14,06,14.50
2008,05,19,14,07,14.50
2008,05,19,14,08,14.50
2008,05,19,14,09,14.60
2008,05,19,14,10,14.50
2008,05,19,14,11,14.40
2008,05,19,14,12,14.30
2008,05,19,14,13,14.20
2008,05,19,14,14,14.20
2008,05,19,14,15,14.20
2008,05,19,14,16,14.20
2008,05,19,14,17,14.40
2008,05,19,14,18,14.40
2008,05,19,14,19,14.40
2008,05,19,14,20,14.40
2008,05,19,14,21,14.30
2008,05,19,14,22,14.30
2008,05,19,14,23,14.20
2008,05,19,14,24,14.20
2008,05,19,14,25,14.30
2008,05,19,14,26,14.50
2008,05,19,14,27,14.60
2008,05,19,14,28,14.60
2008,05,19,14,29,14.70
2008,05,19,14,30,14.70
2008,05,19,14,31,14.70
2008,05,19,14,32,14.70
2008,05,19,14,33,14.70
2008,05,19,14,34,14.80
2008,05,19,14,35,14.90
2008,05,19,14,36,14.90
2008,05,19,14,37,15.00
2008,05,19,14,38,15.20
2008,05,19,14,39,15.40
2008,05,19,14,40,15.60
2008,05,19,14,41,15.60
2008,05,19,14,42,15.60
2008,05,19,14,43,15.50
2008,05,19,14,44,15.50
2008,05,19,14,45,15.60
2008,05,19,14,46,15.60
2008,05,19,14,47,15.60
2008,05,19,14,48,15.60
2008,05,19,14,49,15.70
2008,05,19,14,50,15.80
2008,05,19,14,51,15.90
2008,05,19,14,52,15.90
2008,05,19,14,53,16.00
2008,05,19,14,54,16.10
2008,05,19,14,55,16.10
2008,05,19,14,56,16.20
2008,05,19,14,57,16.30
2008,05,19,14,58,16.40
2008,05,19,14,59,16.40
2008,05,19,15,00,16.50
2008,05,19,15,01,16.60
2008,05,19,15,02,16.70
2008,05,19,15,03,16.80
2008,05,19,15,04,16.90
2008,05,19,15,05,16.90
2008,05,19,15,06,16.90
2008,05,19,15,07,17.00
2008,05,19,15,08,17.00
2008,05,19,15,09,17.10
2008,05,19,15,10,17.20
2008,05,19,15,11,17.30
2008,05,19,15,12,17.30
2008,05,19,15,13,17.30
2008,05,19,15,14,17.30
2008,05,19,15,15,17.20
2008,05,19,15,16,17.20
2008,05,19,15,17,17.10
2008,05,19,15,18,17.00
2008,05,19,15,19,17.00
2008,05,19,15,20,17.00
2008,05,19,15,21,16.90
2008,05,19,15,22,16.90
2008,05,19,15,23,16.90
2008,05,19,15,24,16.90
2008,05,19,15,25,17.00
2008,05,19,15,26,17.00
2008,05,19,15,27,17.00
2008,05,19,15,28,16.90
2008,05,19,15,29,16.90
2008,05,19,15,30,17.00
2008,05,19,15,31,17.10
2008,05,19,15,32,17.10
2008,05,19,15,33,17.00
2008,05,19,15,34,17.00
2008,05,19,15,35,17.00
2008,05,19,15,36,17.00
2008,05,19,15,37,17.00
2008,05,19,15,38,16.90
2008,05,19,15,39,16.90
2008,05,19,15,40,16.90
2008,05,19,15,41,16.90
2008,05,19,15,42,16.80
2008,05,19,15,43,16.80
2008,05,19,15,44,16.70
2008,05,19,15,45,16.70
2008,05,19,15,46,16.60
2008,05,19,15,47,16.60
2008,05,19,15,48,16.60
2008,05,19,15,49,16.70
2008,05,19,15,50,16.70
2008,05,19,15,51,16.70
2008,05,19,15,52,16.70
2008,05,19,15,53,16.70
2008,05,19,15,54,16.70
2008,05,19,15,55,16.70
2008,05,19,15,56,16.70
2008,05,19,15,57,16.70
2008,05,19,15,58,16.70
2008,05,19,15,59,16.60
2008,05,19,16,00,16.50
2008,05,19,16,01,16.40
2008,05,19,16,02,16.30
2008,05,19,16,03,16.30
2008,05,19,16,04,16.20
2008,05,19,16,05,16.10
2008,05,19,16,06,16.10
2008,05,19,16,07,16.10
2008,05,19,16,08,16.20
2008,05,19,16,09,16.20
2008,05,19,16,10,16.20
2008,05,19,16,11,16.30
2008,05,19,16,12,16.30
2008,05,19,16,13,16.30
2008,05,19,16,14,16.40
2008,05,19,16,15,16.40
2008,05,19,16,16,16.40
2008,05,19,16,17,16.40
2008,05,19,16,18,16.40
2008,05,19,16,19,16.40
2008,05,19,16,20,16.40
2008,05,19,16,21,16.40
2008,05,19,16,22,16.50
2008,05,19,16,23,16.70
2008,05,19,16,24,16.80
2008,05,19,16,25,16.80
2008,05,19,16,26,16.70
2008,05,19,16,27,16.70
2008,05,19,16,28,16.70
2008,05,19,16,29,16.60
2008,05,19,16,30,16.60
2008,05,19,16,31,16.50
2008,05,19,16,32,16.40
2008,05,19,16,33,16.40
2008,05,19,16,34,16.30
2008,05,19,16,35,16.20
2008,05,19,16,36,16.10
2008,05,19,16,37,16.10
2008,05,19,16,38,16.10
2008,05,19,16,39,16.00
2008,05,19,16,40,15.90
2008,05,19,16,41,15.80
2008,05,19,16,42,15.80
2008,05,19,16,43,15.70
2008,05,19,16,44,15.50
2008,05,19,16,45,15.50
2008,05,19,16,46,15.30
2008,05,19,16,47,15.20
2008,05,19,16,48,15.10
2008,05,19,16,49,15.10
2008,05,19,16,50,15.00
2008,05,19,16,51,15.00
2008,05,19,16,52,14.90
2008,05,19,16,53,15.00
2008,05,19,16,54,15.00
2008,05,19,16,55,15.00
2008,05,19,16,56,15.00
2008,05,19,16,57,14.90
2008,05,19,16,58,14.90
2008,05,19,16,59,14.80
2008,05,19,17,00,14.80
2008,05,19,17,01,14.80
2008,05,19,17,02,14.70
2008,05,19,17,03,14.70
2008,05,19,17,04,14.70
2008,05,19,17,05,14.70
2008,05,19,17,06,14.60
2008,05,19,17,07,14.60
2008,05,19,17,08,14.60
2008,05,19,17,09,14.60
2008,05,19,17,10,14.70
2008,05,19,17,11,14.80
2008,05,19,17,12,14.80
2008,05,19,17,13,14.90
2008,05,19,17,14,14.90
2008,05,19,17,15,15.00
2008,05,19,17,16,15.00
2008,05,19,17,17,15.10
2008,05,19,17,18,15.10
2008,05,19,17,19,15.10